• In Deutschland
  • Länderverzeichnis
  • Für 7 Tage
  • Wassertemperatur
  • Satellitenkarten
  • Wetterkarte
  • Widgets
  • user-avatar
    Anmelden

    Stündliche Wetter Punta Gorda

    Heute, 17 August, Donnerstag

    Zeit Temperatur Niederschläge Wind Luftdruck Luftfeuchtigkeit
    00:00 +27°C° 0,8 mm 2 m/S 760 mmHg 90%
    01:00 +27°C° 0,2 mm 1 m/S 760 mmHg 90%
    02:00 +27°C° 0,2 mm 1 m/S 760 mmHg 91%
    03:00 +27°C° 0,2 mm 1 m/S 759 mmHg 91%
    04:00 +27°C° 0 mm 1 m/S 760 mmHg 91%
    05:00 +27°C° 0 mm 1 m/S 760 mmHg 91%
    06:00 +27°C° 0 mm 1 m/S 760 mmHg 92%
    07:00 +29°C° 0,1 mm 1 m/S 760 mmHg 83%
    08:00 +31°C° 0,1 mm 1 m/S 760 mmHg 73%
    09:00 +33°C° 0,1 mm 1 m/S 761 mmHg 64%
    10:00 +34°C° 0,2 mm 1 m/S 760 mmHg 61%
    11:00 +36°C° 0,2 mm 2 m/S 760 mmHg 57%
    12:00 +37°C° 0,2 mm 2 m/S 760 mmHg 53%
    13:00 +37°C° 0,1 mm 3 m/S 759 mmHg 51%
    14:00 +37°C° 0,1 mm 3 m/S 759 mmHg 49%
    15:00 +37°C° 0,1 mm 4 m/S 758 mmHg 46%
    16:00 +36°C° 0 mm 4 m/S 758 mmHg 53%
    17:00 +34°C° 0 mm 4 m/S 758 mmHg 60%
    18:00 +32°C° 0 mm 4 m/S 759 mmHg 66%
    19:00 +30°C° 0,1 mm 3 m/S 759 mmHg 74%
    20:00 +29°C° 0,1 mm 3 m/S 760 mmHg 83%
    21:00 +27°C° 0,1 mm 2 m/S 760 mmHg 91%
    22:00 +27°C° 0,8 mm 2 m/S 760 mmHg 93%
    23:00 +27°C° 0,8 mm 2 m/S 760 mmHg 95%

    Morgen, 18 August, Freitag

    Zeit Temperatur Niederschläge Wind Luftdruck Luftfeuchtigkeit
    00:00 +27°C° 0,8 mm 2 m/S 760 mmHg 97%
    01:00 +27°C° 0,5 mm 2 m/S 760 mmHg 97%
    02:00 +27°C° 0,5 mm 2 m/S 760 mmHg 96%
    03:00 +27°C° 0,5 mm 2 m/S 759 mmHg 96%
    04:00 +27°C° 0,3 mm 2 m/S 759 mmHg 97%
    05:00 +27°C° 0,3 mm 2 m/S 760 mmHg 97%
    06:00 +27°C° 0,3 mm 2 m/S 760 mmHg 97%
    07:00 +28°C° 0,2 mm 2 m/S 760 mmHg 90%
    08:00 +30°C° 0,2 mm 2 m/S 760 mmHg 82%
    09:00 +31°C° 0,2 mm 2 m/S 760 mmHg 75%
    10:00 +34°C° 0,1 mm 2 m/S 760 mmHg 65%
    11:00 +36°C° 0,1 mm 2 m/S 760 mmHg 55%
    12:00 +37°C° 0,1 mm 3 m/S 759 mmHg 46%
    13:00 +37°C° 0 mm 3 m/S 759 mmHg 45%
    14:00 +37°C° 0 mm 3 m/S 758 mmHg 44%
    15:00 +37°C° 0 mm 4 m/S 758 mmHg 43%
    16:00 +36°C° 0 mm 3 m/S 758 mmHg 50%
    17:00 +34°C° 0 mm 3 m/S 758 mmHg 58%
    18:00 +31°C° 0 mm 3 m/S 758 mmHg 66%
    19:00 +30°C° 0 mm 2 m/S 759 mmHg 74%
    20:00 +28°C° 0 mm 2 m/S 760 mmHg 83%
    21:00 +27°C° 0 mm 2 m/S 760 mmHg 91%
    22:00 +26°C° 0,1 mm 1 m/S 760 mmHg 92%
    23:00 +26°C° 0,1 mm 1 m/S 760 mmHg 94%

    übermorgen, 19 August, Samstag

    Zeit Temperatur Niederschläge Wind Luftdruck Luftfeuchtigkeit
    00:00 +26°C° 0,1 mm 1 m/S 760 mmHg 95%
    01:00 +26°C° 0,2 mm 1 m/S 760 mmHg 96%
    02:00 +26°C° 0,2 mm 1 m/S 759 mmHg 96%
    03:00 +26°C° 0,2 mm 1 m/S 759 mmHg 96%
    04:00 +25°C° 0,4 mm 1 m/S 759 mmHg 96%
    05:00 +25°C° 0,4 mm 1 m/S 759 mmHg 96%
    06:00 +25°C° 0,4 mm 1 m/S 759 mmHg 96%
    07:00 +28°C° 0 mm 1 m/S 759 mmHg 83%
    08:00 +31°C° 0 mm 1 m/S 760 mmHg 71%
    09:00 +34°C° 0 mm 1 m/S 760 mmHg 58%
    10:00 +35°C° 0 mm 1 m/S 760 mmHg 52%
    11:00 +36°C° 0 mm 1 m/S 759 mmHg 47%
    12:00 +37°C° 0 mm 1 m/S 759 mmHg 41%
    13:00 +38°C° 0 mm 2 m/S 758 mmHg 42%
    14:00 +38°C° 0 mm 2 m/S 757 mmHg 42%
    15:00 +37°C° 0 mm 3 m/S 757 mmHg 43%
    16:00 +36°C° 0,1 mm 3 m/S 757 mmHg 52%
    17:00 +34°C° 0,1 mm 3 m/S 757 mmHg 61%
    18:00 +31°C° 0,1 mm 3 m/S 757 mmHg 70%
    19:00 +29°C° 1,4 mm 2 m/S 758 mmHg 78%
    20:00 +28°C° 1,4 mm 2 m/S 758 mmHg 86%
    21:00 +26°C° 1,4 mm 2 m/S 759 mmHg 94%
    22:00 +26°C° 0,3 mm 1 m/S 759 mmHg 95%
    23:00 +26°C° 0,3 mm 1 m/S 759 mmHg 95%

    20 August, Sonntag

    Zeit Temperatur Niederschläge Wind Luftdruck Luftfeuchtigkeit
    00:00 +26°C° 0,3 mm 1 m/S 759 mmHg 96%
    01:00 +26°C° 0 mm 1 m/S 759 mmHg 96%
    02:00 +25°C° 0 mm 1 m/S 759 mmHg 96%
    03:00 +25°C° 0 mm 1 m/S 758 mmHg 97%
    04:00 +25°C° 0,1 mm 1 m/S 758 mmHg 96%
    05:00 +25°C° 0,1 mm 1 m/S 759 mmHg 96%
    06:00 +25°C° 0,1 mm 1 m/S 759 mmHg 96%
    07:00 +28°C° 0,3 mm 1 m/S 759 mmHg 83%
    08:00 +31°C° 0,3 mm 1 m/S 759 mmHg 71%
    09:00 +33°C° 0,3 mm 1 m/S 759 mmHg 58%
    10:00 +34°C° 0 mm 1 m/S 759 mmHg 55%
    11:00 +36°C° 0 mm 1 m/S 758 mmHg 52%
    12:00 +37°C° 0 mm 1 m/S 758 mmHg 49%
    13:00 +37°C° 0,4 mm 2 m/S 757 mmHg 51%
    14:00 +37°C° 0,4 mm 2 m/S 756 mmHg 53%
    15:00 +36°C° 0,4 mm 3 m/S 756 mmHg 55%
    16:00 +35°C° 0,5 mm 3 m/S 756 mmHg 61%
    17:00 +34°C° 0,5 mm 3 m/S 757 mmHg 66%
    18:00 +31°C° 0,5 mm 3 m/S 757 mmHg 72%
    19:00 +30°C° 0,5 mm 3 m/S 758 mmHg 77%
    20:00 +29°C° 0,5 mm 2 m/S 759 mmHg 83%
    21:00 +28°C° 0,5 mm 2 m/S 759 mmHg 88%
    22:00 +27°C° 0,1 mm 2 m/S 759 mmHg 90%
    23:00 +27°C° 0,1 mm 2 m/S 759 mmHg 92%

    21 August, Montag

    Zeit Temperatur Niederschläge Wind Luftdruck Luftfeuchtigkeit
    00:00 +27°C° 0,1 mm 2 m/S 759 mmHg 94%
    01:00 +27°C° 0,2 mm 1 m/S 759 mmHg 95%
    02:00 +26°C° 0,2 mm 1 m/S 759 mmHg 96%
    03:00 +26°C° 0,2 mm 1 m/S 758 mmHg 96%
    04:00 +26°C° 0,3 mm 1 m/S 759 mmHg 96%
    05:00 +26°C° 0,3 mm 1 m/S 759 mmHg 96%
    06:00 +26°C° 0,3 mm 1 m/S 759 mmHg 96%
    07:00 +27°C° 0,6 mm 1 m/S 760 mmHg 90%
    08:00 +29°C° 0,6 mm 1 m/S 760 mmHg 84%
    09:00 +30°C° 0,6 mm 1 m/S 760 mmHg 78%
    10:00 +30°C° 0,6 mm 1 m/S 760 mmHg 78%
    11:00 +31°C° 0,6 mm 1 m/S 759 mmHg 78%
    12:00 +31°C° 0,6 mm 1 m/S 759 mmHg 78%
    13:00 +31°C° 1 mm 1 m/S 759 mmHg 80%
    14:00 +30°C° 1 mm 1 m/S 758 mmHg 82%
    15:00 +30°C° 1 mm 2 m/S 758 mmHg 84%
    16:00 +29°C° 1,5 mm 1 m/S 758 mmHg 88%
    17:00 +28°C° 1,5 mm 1 m/S 758 mmHg 91%
    18:00 +27°C° 1,5 mm 1 m/S 759 mmHg 95%
    19:00 +27°C° 1,5 mm 1 m/S 759 mmHg 96%
    20:00 +27°C° 1,5 mm 1 m/S 759 mmHg 97%
    21:00 +24°C° 1,5 mm 0 m/S 760 mmHg 97%
    22:00 +26°C° 1,7 mm 1 m/S 760 mmHg 98%
    23:00 +26°C° 1,7 mm 1 m/S 759 mmHg 98%

    22 August, Dienstag

    Zeit Temperatur Niederschläge Wind Luftdruck Luftfeuchtigkeit
    00:00 +26°C° 1,7 mm 1 m/S 759 mmHg 98%
    01:00 +26°C° 1,9 mm 1 m/S 759 mmHg 98%
    02:00 +26°C° 1,9 mm 1 m/S 759 mmHg 98%
    03:00 +26°C° 1,9 mm 1 m/S 759 mmHg 98%
    04:00 +26°C° 2,1 mm 1 m/S 759 mmHg 98%
    05:00 +26°C° 2,1 mm 1 m/S 759 mmHg 98%
    06:00 +26°C° 2,1 mm 1 m/S 760 mmHg 98%
    07:00 +27°C° 0,1 mm 1 m/S 760 mmHg 94%
    08:00 +28°C° 0,1 mm 1 m/S 760 mmHg 90%
    09:00 +29°C° 0,1 mm 1 m/S 761 mmHg 85%
    10:00 +30°C° 0 mm 1 m/S 760 mmHg 76%
    11:00 +32°C° 0 mm 1 m/S 760 mmHg 68%
    12:00 +33°C° 0 mm 1 m/S 760 mmHg 59%
    13:00 +33°C° 0 mm 1 m/S 759 mmHg 58%
    14:00 +33°C° 0 mm 1 m/S 758 mmHg 58%
    15:00 +33°C° 0 mm 1 m/S 758 mmHg 58%
    16:00 +32°C° 0 mm 1 m/S 758 mmHg 64%
    17:00 +31°C° 0 mm 1 m/S 758 mmHg 70%
    18:00 +30°C° 0 mm 1 m/S 759 mmHg 76%
    19:00 +29°C° 0 mm 1 m/S 759 mmHg 80%
    20:00 +28°C° 0 mm 1 m/S 760 mmHg 84%
    21:00 +27°C° 0 mm 1 m/S 760 mmHg 88%
    22:00 +27°C° 0,5 mm 1 m/S 760 mmHg 90%
    23:00 +27°C° 0,5 mm 1 m/S 760 mmHg 91%
    Mehr zeigen